Location: Aragoneses
(41.0275°N, 4.3847°W)
Time: 22:58:20
(UTC+00:00)

IRS-P3 - Pass Details

Date: 11 December 2025
Orbit: 810 x 816 km, 99.0° (Epoch: 14 January)

Event Time Altitude Azimuth Distance (km) Brightness Sun altitude
Rises 17:40:07 0° 147° (SSE) 3,325 7.2 -9.4°
Reaches altitude 10° 17:42:31 10° 142° (SE) 2,396 6.4 -9.8°
Maximum altitude 17:47:34 47° 70° (ENE) 1,074 4.3 -10.7°
Drops below altitude 10° 17:52:38 10° 358° (N) 2,408 6.4 -11.6°
Sets 17:55:03 0° 353° (N) 3,343 7.2 -12.1°
